| time (UTC) | temp F | wind direction | speed MPH | gust MPH | rain 1hr in | rain 24hr in | rain mn in | humidity % | barometer mb |
| 20260504050405 | 58 | 176 | 0.0 | 0.0 | 0.00 | 0.00 | 0.00 | 55 | 1011.4 |
| 20260504045905 | 58 | 173 | 0.0 | 0.0 | 0.00 | 0.00 | 0.00 | 55 | 1011.5 |
| 20260504045404 | 58 | 159 | 0.0 | 0.0 | 0.00 | 0.00 | 0.00 | 55 | 1011.5 |
| 20260504044906 | 58 | 180 | 0.0 | 0.0 | 0.00 | 0.00 | 0.00 | 55 | 1011.6 |
| 20260504044405 | 58 | 177 | 0.0 | 0.0 | 0.00 | 0.00 | 0.00 | 55 | 1011.7 |
| 20260504043905 | 58 | 155 | 0.0 | 0.0 | 0.00 | 0.00 | 0.00 | 55 | 1011.7 |
| 20260504043405 | 58 | 167 | 0.0 | 0.0 | 0.00 | 0.00 | 0.00 | 56 | 1011.7 |
| 20260504042905 | 58 | 148 | 0.0 | 0.0 | 0.00 | 0.00 | 0.00 | 56 | 1011.8 |
| 20260504042405 | 58 | 167 | 0.0 | 0.0 | 0.00 | 0.00 | 0.00 | 56 | 1011.8 |
| 20260504041405 | 58 | 142 | 0.0 | 0.0 | 0.00 | 0.00 | 0.00 | 56 | 1011.9 |
| 20260504040904 | 58 | 155 | 0.0 | 0.0 | 0.00 | 0.00 | 0.00 | 56 | 1012.1 |
| 20260504040405 | 58 | 168 | 0.0 | 0.0 | 0.00 | 0.00 | 0.00 | 56 | 1012.1 |
| 20260504035904 | 58 | 171 | 0.0 | 0.0 | 0.00 | 0.00 | 0.00 | 56 | 1012.1 |
| 20260504035405 | 58 | 189 | 0.0 | 0.0 | 0.00 | 0.00 | 0.00 | 56 | 1012.1 |
| 20260504034905 | 58 | 191 | 0.0 | 0.0 | 0.00 | 0.00 | 0.00 | 55 | 1012.2 |
| 20260504034404 | 58 | 148 | 0.0 | 0.0 | 0.00 | 0.00 | 0.00 | 55 | 1012.2 |
| 20260504033905 | 58 | 173 | 0.0 | 0.0 | 0.00 | 0.00 | 0.00 | 55 | 1012.2 |
| 20260504033404 | 59 | 199 | 0.0 | 0.0 | 0.00 | 0.00 | 0.00 | 55 | 1012.2 |
| 20260504032905 | 59 | 179 | 0.0 | 0.0 | 0.00 | 0.00 | 0.00 | 54 | 1012.4 |
| 20260504032405 | 59 | 166 | 0.0 | 0.0 | 0.00 | 0.00 | 0.00 | 54 | 1012.4 |
| 20260504031905 | 59 | 157 | 0.0 | 0.0 | 0.00 | 0.00 | 0.00 | 53 | 1012.5 |
| 20260504031404 | 60 | 174 | 0.0 | 0.0 | 0.00 | 0.00 | 0.00 | 53 | 1012.6 |
| 20260504030905 | 60 | 137 | 0.0 | 0.0 | 0.00 | 0.00 | 0.00 | 53 | 1012.6 |
| 20260504030405 | 60 | 193 | 0.0 | 0.0 | 0.00 | 0.00 | 0.00 | 52 | 1012.7 |
| 20260504025905 | 60 | 140 | 0.0 | 0.0 | 0.00 | 0.00 | 0.00 | 52 | 1012.7 |
| 20260504024905 | 60 | 196 | 0.0 | 0.0 | 0.00 | 0.00 | 0.00 | 52 | 1012.7 |
| 20260504024405 | 60 | 196 | 0.0 | 0.0 | 0.00 | 0.00 | 0.00 | 51 | 1012.7 |
| 20260504023905 | 60 | 173 | 0.0 | 0.0 | 0.00 | 0.00 | 0.00 | 51 | 1012.7 |
| 20260504023404 | 60 | 182 | 0.0 | 0.0 | 0.00 | 0.00 | 0.00 | 51 | 1012.6 |
| 20260504022905 | 60 | 182 | 0.0 | 0.0 | 0.00 | 0.00 | 0.00 | 51 | 1012.6 |
| 20260504022405 | 60 | 184 | 0.0 | 0.0 | 0.00 | 0.00 | 0.00 | 51 | 1012.7 |
| 20260504021904 | 61 | 184 | 0.0 | 0.0 | 0.00 | 0.00 | 0.00 | 51 | 1012.7 |
| 20260504021404 | 61 | 199 | 0.0 | 0.0 | 0.00 | 0.00 | 0.00 | 51 | 1012.7 |
| 20260504020905 | 61 | 202 | 0.0 | 0.0 | 0.00 | 0.00 | 0.00 | 51 | 1012.8 |
| 20260504020405 | 61 | 161 | 0.0 | 0.0 | 0.00 | 0.00 | 0.00 | 50 | 1012.8 |
| 20260504015904 | 61 | 168 | 0.0 | 0.0 | 0.00 | 0.00 | 0.00 | 49 | 1012.7 |
| 20260504014905 | 62 | 169 | 0.0 | 0.0 | 0.00 | 0.00 | 0.00 | 48 | 1012.7 |
| 20260504014404 | 62 | 170 | 0.0 | 0.0 | 0.00 | 0.00 | 0.00 | 48 | 1012.7 |
| 20260504013905 | 62 | 175 | 0.0 | 0.0 | 0.00 | 0.00 | 0.00 | 49 | 1012.7 |
| 20260504013405 | 62 | 167 | 0.0 | 0.0 | 0.00 | 0.00 | 0.00 | 48 | 1012.6 |
| 20260504012905 | 62 | 169 | 0.0 | 0.0 | 0.00 | 0.00 | 0.00 | 47 | 1012.8 |
| 20260504012405 | 62 | 172 | 0.0 | 0.0 | 0.00 | 0.00 | 0.00 | 47 | 1012.8 |
| 20260504011905 | 62 | 172 | 0.0 | 0.0 | 0.00 | 0.00 | 0.00 | 47 | 1012.8 |
| 20260504011404 | 63 | 172 | 0.0 | 0.0 | 0.00 | 0.00 | 0.00 | 46 | 1012.9 |
| 20260504010905 | 63 | 172 | 0.0 | 0.0 | 0.00 | 0.00 | 0.00 | 45 | 1013.0 |
| 20260504010405 | 63 | 175 | 0.0 | 0.0 | 0.00 | 0.00 | 0.00 | 45 | 1013.0 |
| 20260504005904 | 63 | 155 | 0.0 | 0.0 | 0.00 | 0.00 | 0.00 | 44 | 1013.0 |
| 20260504005405 | 64 | 155 | 0.0 | 0.0 | 0.00 | 0.00 | 0.00 | 44 | 1012.8 |
| 20260504004904 | 64 | 158 | 0.0 | 0.0 | 0.00 | 0.00 | 0.00 | 44 | 1012.9 |
| 20260504003904 | 65 | 179 | 0.0 | 0.0 | 0.00 | 0.00 | 0.00 | 43 | 1012.8 |
| 20260504003405 | 65 | 197 | 0.0 | 0.0 | 0.00 | 0.00 | 0.00 | 42 | 1012.6 |
| 20260504002404 | 66 | 227 | 0.0 | 0.0 | 0.00 | 0.00 | 0.00 | 41 | 1012.7 |
| 20260504001905 | 66 | 202 | 0.0 | 1.0 | 0.00 | 0.00 | 0.00 | 40 | 1012.6 |
| 20260504000905 | 67 | 171 | 0.0 | 6.0 | 0.00 | 0.00 | 0.00 | 39 | 1012.6 |
| 20260504000405 | 68 | 160 | 0.0 | 7.0 | 0.00 | 0.00 | 0.00 | 39 | 1012.6 |
| 20260503235904 | 68 | 179 | 0.0 | 1.0 | 0.00 | 0.00 | 0.00 | 38 | 1012.6 |
| 20260503235405 | 69 | 155 | 0.0 | 1.0 | 0.00 | 0.00 | 0.00 | 37 | 1012.5 |
| 20260503234404 | 69 | 189 | 0.0 | 1.0 | 0.00 | 0.00 | 0.00 | 37 | 1012.4 |
| 20260503233904 | 69 | 256 | 3.0 | 10.0 | 0.00 | 0.00 | 0.00 | 36 | 1012.3 |
| 20260503232404 | 70 | 140 | 0.0 | 9.0 | 0.00 | 0.00 | 0.00 | 36 | 1012.5 |
| 20260503231905 | 70 | 162 | 4.0 | 13.0 | 0.00 | 0.00 | 0.00 | 36 | 1012.5 |
| 20260503231405 | 70 | 184 | 6.0 | 16.0 | 0.00 | 0.00 | 0.00 | 35 | 1012.4 |
| 20260503230904 | 70 | 273 | 5.0 | 12.0 | 0.00 | 0.00 | 0.00 | 35 | 1012.5 |
| 20260503230404 | 70 | 225 | 0.0 | 7.0 | 0.00 | 0.00 | 0.00 | 36 | 1012.6 |
| 20260503225904 | 70 | 182 | 2.0 | 12.0 | 0.00 | 0.00 | 0.00 | 35 | 1012.7 |
| 20260503225405 | 70 | 171 | 3.0 | 10.0 | 0.00 | 0.00 | 0.00 | 35 | 1012.8 |
| 20260503224905 | 70 | 157 | 7.0 | 16.0 | 0.00 | 0.00 | 0.00 | 35 | 1012.9 |
| 20260503224405 | 70 | 175 | 3.0 | 15.0 | 0.00 | 0.00 | 0.00 | 35 | 1013.1 |
| 20260503223905 | 71 | 183 | 6.0 | 18.0 | 0.00 | 0.00 | 0.00 | 35 | 1013.1 |
| 20260503223405 | 71 | 183 | 6.0 | 12.0 | 0.00 | 0.00 | 0.00 | 37 | 1013.1 |
| 20260503222905 | 70 | 191 | 3.0 | 14.0 | 0.00 | 0.00 | 0.00 | 36 | 1013.1 |
| 20260503222404 | 71 | 173 | 7.0 | 15.0 | 0.00 | 0.00 | 0.00 | 36 | 1013.3 |
| 20260503221405 | 71 | 188 | 6.0 | 14.0 | 0.00 | 0.00 | 0.00 | 37 | 1013.5 |
| 20260503220904 | 71 | 217 | 2.0 | 10.0 | 0.00 | 0.00 | 0.00 | 35 | 1013.5 |
| 20260503220404 | 71 | 267 | 2.0 | 13.0 | 0.00 | 0.00 | 0.00 | 36 | 1013.5 |
| 20260503214405 | 71 | 246 | 3.0 | 20.0 | 0.00 | 0.00 | 0.00 | 36 | 1014.0 |
| 20260503213904 | 71 | 263 | 5.0 | 15.0 | 0.00 | 0.00 | 0.00 | 36 | 1014.1 |
| 20260503213404 | 71 | 150 | 4.0 | 12.0 | 0.00 | 0.00 | 0.00 | 38 | 1014.2 |
| 20260503212904 | 70 | 215 | 5.0 | 15.0 | 0.00 | 0.00 | 0.00 | 36 | 1014.4 |
| 20260503212404 | 70 | 252 | 5.0 | 14.0 | 0.00 | 0.00 | 0.00 | 36 | 1014.5 |
| 20260503211904 | 70 | 155 | 8.0 | 18.0 | 0.00 | 0.00 | 0.00 | 36 | 1014.6 |
| 20260503211404 | 71 | 247 | 9.0 | 16.0 | 0.00 | 0.00 | 0.00 | 35 | 1014.7 |
| 20260503210906 | 70 | 278 | 1.0 | 8.0 | 0.00 | 0.00 | 0.00 | 37 | 1014.7 |
| 20260503210405 | 71 | 178 | 7.0 | 20.0 | 0.00 | 0.00 | 0.00 | 36 | 1014.8 |
| 20260503205904 | 70 | 185 | 6.0 | 13.0 | 0.00 | 0.00 | 0.00 | 38 | 1014.9 |
| 20260503205404 | 70 | 166 | 5.0 | 12.0 | 0.00 | 0.00 | 0.00 | 37 | 1015.2 |
| 20260503204904 | 70 | 143 | 2.0 | 12.0 | 0.00 | 0.00 | 0.00 | 38 | 1015.4 |
| 20260503204404 | 70 | 172 | 6.0 | 16.0 | 0.00 | 0.00 | 0.00 | 37 | 1015.5 |
| 20260503203404 | 70 | 159 | 6.0 | 13.0 | 0.00 | 0.00 | 0.00 | 37 | 1015.6 |
| 20260503202904 | 70 | 163 | 7.0 | 15.0 | 0.00 | 0.00 | 0.00 | 37 | 1015.8 |
| 20260503202405 | 70 | 159 | 6.0 | 16.0 | 0.00 | 0.00 | 0.00 | 38 | 1016.0 |
| 20260503201404 | 69 | 258 | 6.0 | 15.0 | 0.00 | 0.00 | 0.00 | 39 | 1016.3 |
| 20260503200904 | 69 | 251 | 3.0 | 12.0 | 0.00 | 0.00 | 0.00 | 39 | 1016.3 |
| 20260503200404 | 69 | 287 | 7.0 | 18.0 | 0.00 | 0.00 | 0.00 | 37 | 1016.4 |
| 20260503195904 | 69 | 162 | 2.0 | 12.0 | 0.00 | 0.00 | 0.00 | 40 | 1016.6 |
| 20260503195405 | 69 | 184 | 6.0 | 14.0 | 0.00 | 0.00 | 0.00 | 39 | 1016.8 |
| 20260503194905 | 68 | 170 | 6.0 | 12.0 | 0.00 | 0.00 | 0.00 | 40 | 1016.9 |
| 20260503194405 | 68 | 186 | 8.0 | 15.0 | 0.00 | 0.00 | 0.00 | 40 | 1017.1 |
| 20260503193904 | 68 | 278 | 4.0 | 12.0 | 0.00 | 0.00 | 0.00 | 41 | 1017.2 |
| 20260503193404 | 68 | 326 | 9.0 | 22.0 | 0.00 | 0.00 | 0.00 | 40 | 1017.2 |
| 20260503192905 | 68 | 218 | 3.0 | 9.0 | 0.00 | 0.00 | 0.00 | 42 | 1017.2 |
| 20260503192405 | 68 | 169 | 3.0 | 14.0 | 0.00 | 0.00 | 0.00 | 41 | 1017.4 |
| 20260503191904 | 68 | 146 | 7.0 | 21.0 | 0.00 | 0.00 | 0.00 | 41 | 1017.3 |
| 20260503191405 | 68 | 159 | 7.0 | 13.0 | 0.00 | 0.00 | 0.00 | 40 | 1017.5 |
| 20260503190904 | 68 | 146 | 5.0 | 18.0 | 0.00 | 0.00 | 0.00 | 41 | 1017.4 |
| 20260503190404 | 68 | 192 | 7.0 | 14.0 | 0.00 | 0.00 | 0.00 | 41 | 1017.6 |
| 20260503185905 | 67 | 142 | 6.0 | 14.0 | 0.00 | 0.00 | 0.00 | 41 | 1017.7 |
| 20260503185404 | 68 | 315 | 5.0 | 12.0 | 0.00 | 0.00 | 0.00 | 42 | 1017.8 |
| 20260503184904 | 68 | 238 | 2.0 | 12.0 | 0.00 | 0.00 | 0.00 | 42 | 1017.8 |
| 20260503184404 | 68 | 331 | 1.0 | 9.0 | 0.00 | 0.00 | 0.00 | 42 | 1017.9 |
| 20260503183904 | 67 | 147 | 1.0 | 8.0 | 0.00 | 0.00 | 0.00 | 43 | 1018.3 |
| 20260503183404 | 67 | 137 | 2.0 | 10.0 | 0.00 | 0.00 | 0.00 | 42 | 1018.3 |
| 20260503182904 | 67 | 160 | 5.0 | 12.0 | 0.00 | 0.00 | 0.00 | 42 | 1018.5 |
| 20260503182404 | 66 | 192 | 3.0 | 16.0 | 0.00 | 0.00 | 0.00 | 43 | 1018.6 |
| 20260503181904 | 66 | 155 | 5.0 | 13.0 | 0.00 | 0.00 | 0.00 | 44 | 1018.7 |
| 20260503181405 | 66 | 171 | 7.0 | 15.0 | 0.00 | 0.00 | 0.00 | 43 | 1018.8 |
| 20260503180904 | 66 | 265 | 5.0 | 15.0 | 0.00 | 0.00 | 0.00 | 42 | 1018.8 |
| 20260503180404 | 66 | 162 | 5.0 | 13.0 | 0.00 | 0.00 | 0.00 | 44 | 1018.8 |
| 20260503175904 | 66 | 156 | 7.0 | 15.0 | 0.00 | 0.00 | 0.00 | 45 | 1019.0 |
| 20260503174904 | 66 | 197 | 7.0 | 13.0 | 0.00 | 0.00 | 0.00 | 45 | 1019.4 |
| 20260503174405 | 66 | 165 | 5.0 | 13.0 | 0.00 | 0.00 | 0.00 | 47 | 1019.5 |
| 20260503173904 | 65 | 182 | 6.0 | 12.0 | 0.00 | 0.00 | 0.00 | 45 | 1019.6 |
| 20260503173404 | 65 | 300 | 3.0 | 12.0 | 0.00 | 0.00 | 0.00 | 47 | 1019.7 |
| 20260503172905 | 65 | 146 | 6.0 | 18.0 | 0.00 | 0.00 | 0.00 | 47 | 1019.7 |
| 20260503172404 | 65 | 324 | 3.0 | 13.0 | 0.00 | 0.00 | 0.00 | 46 | 1019.9 |
| 20260503171904 | 65 | 150 | 4.0 | 14.0 | 0.00 | 0.00 | 0.00 | 47 | 1020.0 |
| 20260503171404 | 65 | 359 | 2.0 | 10.0 | 0.00 | 0.00 | 0.00 | 46 | 1020.1 |
| 20260503150904 | 59 | 138 | 3.0 | 9.0 | 0.00 | 0.00 | 0.00 | 56 | 1021.2 |
| 20260503131404 | 47 | 165 | 0.0 | 0.0 | 0.00 | 0.00 | 0.00 | 82 | 1021.4 |
| 20260503130904 | 47 | 157 | 0.0 | 0.0 | 0.00 | 0.00 | 0.00 | 82 | 1021.3 |
| 20260503130404 | 46 | 170 | 0.0 | 0.0 | 0.00 | 0.00 | 0.00 | 82 | 1021.4 |
| 20260503110404 | 39 | 335 | 0.0 | 0.0 | 0.00 | 0.00 | 0.00 | 82 | 1020.8 |
| 20260503090405 | 37 | 335 | 0.0 | 0.0 | 0.00 | 0.00 | 0.00 | 81 | 1020.8 |
| 20260503080905 | 38 | 335 | 0.0 | 0.0 | 0.00 | 0.00 | 0.00 | 81 | 1020.7 |
| 20260503080405 | 38 | 335 | 0.0 | 0.0 | 0.00 | 0.00 | 0.00 | 81 | 1020.7 |
| 20260503072906 | 38 | 335 | 0.0 | 0.0 | 0.00 | 0.00 | 0.00 | 80 | 1020.7 |
| 20260503072405 | 38 | 335 | 0.0 | 0.0 | 0.00 | 0.00 | 0.00 | 80 | 1020.7 |
| 20260503071905 | 38 | 335 | 0.0 | 0.0 | 0.00 | 0.00 | 0.00 | 80 | 1020.7 |
| 20260503071405 | 38 | 335 | 0.0 | 0.0 | 0.00 | 0.00 | 0.00 | 80 | 1020.6 |
| 20260503070905 | 38 | 335 | 0.0 | 0.0 | 0.00 | 0.00 | 0.00 | 80 | 1020.8 |
| 20260503070405 | 39 | 335 | 0.0 | 0.0 | 0.00 | 0.00 | 0.00 | 80 | 1020.7 |